ATLAS 5 CENTAUR DEB, 43996

Orbit data source: Space-Track

ATLAS 5 CENTAUR DEB, 43996 is space debris in HEO originally from a launch on Wed, 17 Sep 2014 UTC launched from the Air Force Eastern Test Range (AFETR). Debris objects in space refer to the collection of defunct objects orbiting the Earth. Examples of debris include non-operational satellites, rocket bodies, and fragments generated from explosions, collisions, or faulty payload assembly.

Loading next visibility...
Identifier
43996, 2014-055BB
Orbit
HEO
Country
Flag of USUS
Related business
Flag of USUnited Launch Alliance/Lockheed Martin (US)
Manufacturer
Unknown
Mission
Spacecraft
Bus & Motor
Unknown
Mass
Unknown
Launch date (UTC)
2014-09-17 (12 years ago)
Launch vehicle
Unknown
Launch site
Air Force Eastern Test Range (AFETR)
Object type
Payload
Rocket body
Debris
Shape & HBR
Unknown shape, 1.1 m
Radar Cross Section
Medium (>0.1 m² and <1 m²)

Expand to show TLE details & history
Last TLE update: 19 hours ago

TLE from 19 hours ago
0 ATLAS 5 CENTAUR DEB
1 43996U 14055BB  26235.53122884 -.00000122  00000-0  00000-0 0  9993
2 43996  19.8167 150.8403 4813148 152.4234 244.5128  1.81740181 52257
Epoch: 2026-08-23T12:44Z
TLE epoch observation values (Epoch: 2026-08-23T12:44:58.171Z)
Latitude
0.00003°
Longitude
-12.27682°
Altitude
31,662.823 km
Speed
2.628 km/s
True Right ascension
10h 03m 09s
True Declination
0° 00' 00"
Sunlit
Object was in daylight at epoch
Visualization orbit readout
Latitude
Unknown
Longitude
Unknown
Altitude
Unknown
Speed
Unknown
Apparent Right ascension
Unknown
Apparent Declination
Unknown
Sunlit
N/A
Visualization observer readout
Local Sidereal Time
23:04:47
Azimuth
Unknown
Elevation
Unknown
Doppler factor
Unknown
Orbital elements
Apogee altitude
35,640.766 km
Perigee altitude
8,334.862 km
Semi-major axis
28,365.951 km
Eccentricity
0.48131
Inclination
19.8167°
RAAN
150.8403°
Arg. of periapsis
152.4234°
True anomaly
207.55017°
Mean anomaly
244.5128°
Eccentric anomaly
225.00947°
Mean motion
0.4543 °/min
Orbital period
792.42 mins
BSTAR
0
Loading maneuver chart data...
Computing Atmospheric mass density...

Documentation

Showing up to 5 results
|